Concordia, KS

7:55 PM CDT on April 28, 2017 (GMT -0500)
Blosser Municipal

Weather History for KCNK - May, 2012

Change the Weather History Date:

Sunday, May 6, 2012

  Actual Average Record
Temperature  
Mean Temperature 68 °F 60 °F  
Max Temperature 78 °F 71 °F 94 °F (1955)
Min Temperature 57 °F 49 °F 29 °F (1944)
Degree Days  
Heating Degree Days 0 6  
Month to date heating degree days 0 42  
Since 1 July heating degree days 4269 5306  
Cooling Degree Days 3 1  
Month to date cooling degree days 46 6  
Year to date cooling degree days 109 23  
Growing Degree Days 18 (Base 50)    
Moisture  
Dew Point 59 °F    
Average Humidity 70    
Maximum Humidity 90    
Minimum Humidity 50    
Precipitation  
Precipitation T in 0.13 in 2.25 in (1978)
Month to date precipitation T 0.69  
Year to date precipitation 8.58 6.52  
Snow  
Snow 0.00 in 0.00 in T in (1978)
Month to date snowfall 0.0 0.0  
Year to date snowfall 5.8 13.7  
Since 1 July snowfall 6.7 20.2  
Snow Depth 0.00 in    
Sea Level Pressure  
Sea Level Pressure 29.86 in    
Wind  
Wind Speed 15 mph (NNE)    
Max Wind Speed 25 mph    
Max Gust Speed 37 mph    
Visibility 10 miles    
Events      
T = Trace of Precipitation, MM = Missing Value Source: NWS Daily Summary

Daily Weather History Graph

Daily Weather History Graph

Search for Another Location

Airport or City:

Trip Planner

Search our weather history database for the weather conditions in past years. The results will help you decide how hot, cold, wet, or windy it might be!

Date:

Astronomy

May. 06, 2012 Rise Set
Actual Time 6:25 AM CDT 8:29 PM CDT
Civil Twilight 5:55 AM CDT 8:59 PM CDT
Nautical Twilight 5:19 AM CDT 9:35 PM CDT
Astronomical Twilight 4:40 AM CDT 10:15 PM CDT
Moon 9:36 PM CDT (5/6) 6:36 AM CDT (5/6)
Length of Visible Light 15h 04m
Length of Day
14h 04m
Full, 100% of the Moon is Illuminated
May 6
Full
May 12
Last Quarter
May 20
New
May 28
First Quarter
Jun 4
Full

Hourly Weather History & Observations

Time (CDT) Temp. Dew Point Humidity Pressure Visibility Wind Dir Wind Speed Gust Speed Precip Events Conditions
12:55 AM 73.0 °F 68.0 °F 84% 29.66 in 10.0 mi SSE 15.0 mph - N/A   Clear
1:55 AM 71.1 °F 68.0 °F 90% 29.68 in 9.0 mi SE 10.4 mph - N/A   Clear
2:55 AM 70.0 °F 66.9 °F 90% 29.67 in 8.0 mi SE 6.9 mph - N/A   Clear
3:55 AM 69.1 °F 66.9 °F 93% 29.68 in 7.0 mi SE 6.9 mph - N/A   Clear
4:29 AM 68.0 °F 66.2 °F 94% 29.78 in 7.0 mi North 16.1 mph - N/A   Mostly Cloudy
4:48 AM 69.8 °F 66.2 °F 88% 29.78 in 8.0 mi North 6.9 mph - N/A   Overcast
4:55 AM 69.1 °F 66.0 °F 90% 29.74 in 8.0 mi North 6.9 mph - N/A   Overcast
5:55 AM 69.1 °F 66.9 °F 93% 29.75 in 7.0 mi Calm Calm - 0.00 in   Mostly Cloudy
6:11 AM 66.2 °F 60.8 °F 83% 29.82 in 10.0 mi NNE 20.7 mph 32.2 mph N/A   Overcast
6:39 AM 66.2 °F 57.2 °F 73% 29.83 in 10.0 mi NE 21.9 mph 31.1 mph N/A   Mostly Cloudy
6:55 AM 66.2 °F 55.4 °F 68% 29.84 in 10.0 mi NE 19.6 mph 28.8 mph N/A   Mostly Cloudy
7:55 AM 68.0 °F 55.9 °F 65% 29.82 in 10.0 mi NE 18.4 mph 27.6 mph N/A   Partly Cloudy
8:55 AM 68.0 °F 57.0 °F 68% 29.84 in 10.0 mi NE 19.6 mph 27.6 mph N/A   Overcast
9:55 AM 72.0 °F 57.9 °F 61% 29.86 in 10.0 mi NE 19.6 mph 27.6 mph N/A   Scattered Clouds
10:55 AM 73.9 °F 57.9 °F 57% 29.86 in 10.0 mi NE 19.6 mph - N/A   Clear
11:55 AM 77.0 °F 57.9 °F 52% 29.86 in 10.0 mi NNE 16.1 mph 24.2 mph N/A   Clear
12:55 PM 75.9 °F 59.0 °F 56% 29.87 in 10.0 mi North 12.7 mph 27.6 mph N/A   Mostly Cloudy
1:55 PM 72.0 °F 59.0 °F 64% 29.89 in 10.0 mi North 20.7 mph 28.8 mph N/A   Overcast
2:55 PM 68.0 °F 57.9 °F 70% 29.91 in 10.0 mi North 18.4 mph 28.8 mph N/A   Overcast
3:30 PM 68.0 °F 57.2 °F 68% 29.95 in 10.0 mi North 21.9 mph 28.8 mph N/A   Overcast
3:55 PM 69.1 °F 57.0 °F 65% 29.91 in 10.0 mi North 23.0 mph 31.1 mph N/A   Overcast
4:37 PM 66.2 °F 55.4 °F 68% 29.94 in 10.0 mi North 18.4 mph 27.6 mph N/A   Overcast
4:55 PM 66.9 °F 55.9 °F 68% 29.91 in 10.0 mi North 17.3 mph 26.5 mph N/A   Overcast
5:55 PM 66.0 °F 55.9 °F 70% 29.92 in 10.0 mi North 16.1 mph 25.3 mph N/A   Overcast
6:43 PM 64.4 °F 55.4 °F 73% 29.96 in 10.0 mi North 17.3 mph - 0.00 in   Overcast
6:55 PM 64.0 °F 55.9 °F 75% 29.94 in 10.0 mi North 19.6 mph 24.2 mph 0.00 in   Overcast
7:55 PM 62.1 °F 54.0 °F 75% 29.95 in 10.0 mi NNE 19.6 mph 31.1 mph N/A   Overcast
8:55 PM 61.0 °F 55.0 °F 81% 29.96 in 10.0 mi NNE 15.0 mph - N/A   Overcast
9:44 PM 60.8 °F 53.6 °F 77% 30.02 in 10.0 mi North 15.0 mph - N/A   Overcast
9:55 PM 60.1 °F 52.0 °F 75% 30.00 in 10.0 mi North 17.3 mph 21.9 mph N/A   Overcast
10:55 PM 59.0 °F 46.0 °F 62% 30.01 in 10.0 mi North 15.0 mph 24.2 mph 0.00 in   Overcast
11:55 PM 57.0 °F 45.0 °F 64% 30.03 in 10.0 mi North 16.1 mph 20.7 mph 0.00 in   Overcast